TimeCDT,TemperatureF,Dew PointF,Humidity,Sea Level PressureIn,VisibilityMPH,Wind Direction,Wind SpeedMPH,Gust SpeedMPH,PrecipitationIn,Events,Conditions,WindDirDegrees,DateUTC
12:56 AM,62.1,57.0,84,29.95,-9999.0,Calm,Calm,-,N/A,,Unknown,0,2013-06-19 05:56:00
1:56 AM,62.1,55.9,80,29.94,-9999.0,SSE,3.5,-,N/A,,Unknown,160,2013-06-19 06:56:00
2:56 AM,60.1,55.9,86,29.92,-9999.0,Calm,Calm,-,N/A,,Unknown,0,2013-06-19 07:56:00
3:56 AM,59.0,55.9,90,29.93,-9999.0,Calm,Calm,-,N/A,,Unknown,0,2013-06-19 08:56:00
4:56 AM,59.0,55.9,90,29.93,-9999.0,SSE,5.8,-,N/A,,Unknown,160,2013-06-19 09:56:00
5:56 AM,59.0,55.9,90,29.94,-9999.0,SSW,4.6,-,N/A,,Unknown,210,2013-06-19 10:56:00
6:56 AM,62.1,57.0,84,29.92,-9999.0,South,6.9,-,N/A,,Unknown,180,2013-06-19 11:56:00
7:56 AM,64.0,57.9,80,29.91,-9999.0,South,6.9,-,N/A,,Unknown,180,2013-06-19 12:56:00
8:56 AM,69.1,59.0,70,29.91,-9999.0,South,8.1,-,N/A,,Unknown,180,2013-06-19 13:56:00
9:56 AM,73.9,61.0,64,29.89,-9999.0,South,5.8,-,N/A,,Unknown,170,2013-06-19 14:56:00
10:56 AM,80.1,60.1,50,29.88,-9999.0,South,10.4,-,N/A,,Unknown,180,2013-06-19 15:56:00
11:56 AM,82.9,55.9,39,29.88,-9999.0,SSW,8.1,16.1,N/A,,Unknown,200,2013-06-19 16:56:00
12:56 PM,84.9,59.0,41,29.86,-9999.0,SW,10.4,21.9,N/A,,Unknown,230,2013-06-19 17:56:00
1:56 PM,86.0,57.9,38,29.85,-9999.0,SSW,11.5,-,N/A,,Unknown,200,2013-06-19 18:56:00
2:56 PM,87.1,55.0,33,29.83,-9999.0,SSW,12.7,-,N/A,,Unknown,210,2013-06-19 19:56:00
3:56 PM,87.1,53.1,31,29.83,-9999.0,South,11.5,-,N/A,,Unknown,190,2013-06-19 20:56:00
4:56 PM,89.1,52.0,28,29.81,-9999.0,South,13.8,-,N/A,,Unknown,190,2013-06-19 21:56:00
5:56 PM,88.0,50.0,27,29.80,-9999.0,South,12.7,-,N/A,,Unknown,190,2013-06-19 22:56:00
6:56 PM,87.1,51.1,29,29.78,-9999.0,South,13.8,-,N/A,,Unknown,170,2013-06-19 23:56:00
7:56 PM,84.0,54.0,35,29.78,-9999.0,SSE,8.1,-,N/A,,Unknown,150,2013-06-20 00:56:00
8:56 PM,81.0,55.9,42,29.78,-9999.0,South,5.8,-,N/A,,Unknown,170,2013-06-20 01:56:00
9:56 PM,75.0,61.0,62,29.80,-9999.0,Calm,Calm,-,N/A,,Unknown,0,2013-06-20 02:56:00
10:56 PM,73.9,63.0,68,29.78,-9999.0,South,8.1,-,N/A,,Unknown,170,2013-06-20 03:56:00
11:56 PM,73.0,57.0,57,29.79,-9999.0,South,18.4,25.3,N/A,,Unknown,180,2013-06-20 04:56:00